Location: Ambatotampy
(18.8181°S, 47.6186°E)
Time: 23:41:21
(UTC+00:00)

GPS 2-14 Rocket1 - Pass Details

Date: 21 January 2021
Orbit: 475 x 539 km, 20.7° (Epoch: 24 February)

Event Time Altitude Azimuth Distance (km) Brightness Sun altitude
Exits shadow 00:27:52 37° 90° (E) 782 3.9 -26.2°
Drops below altitude 10° 00:30:18 10° 97° (E) 1,674 6.1 -25.7°
Sets 00:32:30 0° 99° (E) 2,546 7.2 -25.3°
